User: anonymous   Login
Location: Alta
(39.2070°N, 120.8111°W)
Time: 01:37:44
(UTC+00:00)
Language:

JUGNU - Orbit

View from above orbital plane
View from above orbital plane
View from above satellite
View from above satellite

Ground track
Ground track

The orbit data is extracted from the following two-line orbital elements,

1 37839U 11058B   24111.23045674  .00001053  00000-0  41399-3 0  9993
2 37839  19.9623  53.6707 0018743  17.8228 128.2856 14.13170838647400
Epoch (UTC): 20 April 2024 05:31:51
Eccentricity: 0.0018743
inclination: 19.9623°
perigee height: 835 km
apogee height: 862 km
right ascension of ascending node: 53.6707°
argument of perigee: 17.8228°
revolutions per day: 14.13170838
mean anomaly at epoch: 128.2856°
orbit number at epoch: 64740

The dashed part of the orbit path shows where the satellite is in the earth's shadow,  

DLR